Temp
-7 -7 -7 -8 -7 -7 -8 -8 -8 -7 -8 -7 -8 -8 -8 -8 -7 -7 -7 -6 -6 -6 -6 -6 -6 -5 -6 -6 -6 -6 -6 -6 -6 -6 -6 -6 -6 -6 -6 -6 -5 -5 -5
-6 -7 -6 -7 -7 -8 -8 -8 -7 -7 -8 -7 -8 -8 -7 -7 -7 -8 -8 -7 -7 -7 -7 -6 -6 -6 -6 -6 -6 -6 -6 -6 -6 -6 -6 -6 -6 -6 -6 -6 -6 -6 -6
-6 -6 -7 -7 -8 -7 -7 -7 -7 -8 -7 -7 -8 -7 -8 -8 -7 -8 -8 -7 -7 -6 -6 -6 -6 -6 -6 -6 -6 -6 -6 -6 -6 -6 -6 -6 -6 -6 -6 -6 -7 -6 -6
-7 -6 -7 -7 -7 -8 -7 -8 -8 -7 -7 -7 -7 -7 -7 -8 -8 -8 -8 -8 -8 -7 -7 -7 -7 -7 -6 -6 -6 -6 -6 -6 -6 -6 -6 -6 -6 -6 -7 -7 -7 -7 -7
-6 -6 -7 -8 -8 -7 -8 -8 -8 -5 -7 -7 -7 -7 -7 -8 -8 -8 -8 -8 -8 -7 -7 -7 -7 -7 -7 -7 -7 -7 -7 -7 -7 -7 -7 -7 -7 -7 -7 -7 -7 -7 -7
-7 -7 -7 -7 -7 -8 -8 -8 -8 -7 -8 -8 -8 -8 -8 -9 -8 -8 -8 -8 -8 -8 -8 -8 -8 -8 -8 -7 -7 -7 -7 -7 -8 -8 -8 -7 -7 -7 -7 -7 -7 -7 -7
-6 -7 -7 -7 -8 -8 -8 -8 -8 -7 -7 -8 -8 -8 -8 -8 -8 -9 -8 -8 -8 -8 -8 -8 -8 -8 -8 -8 -8 -8 -8 -8 -8 -8 -8 -8 -8 -8 -8 -9 -9 -8 -9
-7 -7 -7 -8 -8 -8 -8 -8 -8 -8 -8 -8 -8 -8 -8 -9 -9 -9 -8 -8 -8 -8 -9 -9 -8 -8 -8 -8 -8 -8 -9 -9 -9 -9 -9 -9 -9 -10 -10 -10 -10 -9 -9
-7 -7 -7 -8 -8 -8 -8 -8 -8 -9 -8 -8 -8 -8 -8 -9 -9 -8 -9 -9 -9 -9 -9 -9 -9 -9 -9 -9 -9 -9 -9 -9 -9 -10 -10 -10 -10 -10 -10 -10 -10 -10 -10
-8 -8 -8 -8 -8 -8 -8 -8 -8 -9 -9 -8 -8 -9 -9 -9 -9 -9 -9 -9 -9 -9 -10 -9 -9 -10 -10 -10 -10 -10 -10 -10 -10 -10 -10 -10 -11 -11 -11 -11 -11 -11 -11
-8 -8 -9 -9 -9 -9 -9 -9 -8 -9 -9 -8 -9 -9 -9 -9 -9 -9 -10 -10 -10 -9 -9 -9 -9 -10 -10 -10 -10 -10 -10 -10 -10 -10 -11 -11 -12 -12 -12 -12 -13 -13 -13
-9 -9 -9 -9 -9 -9 -9 -9 -9 -10 -10 -9 -9 -9 -9 -9 -10 -10 -10 -10 -10 -10 -10 -10 -10 -10 -10 -10 -11 -11 -11 -12 -12 -13 -13 -14 -14 -15 -15 -15 -15 -15 -15
-9 -9 -9 -9 -9 -9 -9 -9 -10 -10 -10 -9 -10 -9 -9 -10 -10 -10 -10 -10 -10 -10 -11 -11 -11 -11 -11 -11 -12 -12 -12 -13 -15 -15 -16 -16 -16 -16 -16 -16 -16 -16 -16
-9 -10 -9 -9 -9 -9 -9 -10 -9 -10 -10 -10 -10 -10 -10 -10 -11 -11 -11 -11 -11 -11 -11 -11 -11 -12 -12 -13 -13 -14 -14 -15 -15 -15 -16 -16 -17 -17 -17 -17 -17 -17 -17
-9 -9 -9 -9 -9 -9 -9 -10 -10 -10 -10 -10 -10 -10 -11 -11 -11 -11 -11 -11 -11 -11 -11 -12 -12 -13 -14 -14 -15 -15 -15 -15 -16 -16 -16 -17 -17 -17 -17 -17 -17 -17 -17
-9 -9 -9 -9 -9 -9 -9 -10 -10 -10 -10 -10 -11 -11 -10 -11 -11 -11 -11 -11 -11 -11 -12 -13 -14 -14 -15 -15 -15 -15 -16 -16 -16 -17 -17 -17 -17 -17 -17 -18 -17 -17 -17
-9 -10 -9 -9 -9 -9 -9 -10 -10 -10 -10 -11 -11 -10 -11 -11 -11 -11 -11 -11 -12 -13 -14 -14 -14 -15 -15 -15 -15 -15 -16 -17 -17 -17 -18 -18 -18 -18 -18 -18 -18 -18 -18
-10 -10 -10 -9 -9 -9 -9 -10 -10 -10 -10 -11 -11 -11 -11 -11 -11 -11 -12 -12 -13 -14 -14 -14 -15 -15 -15 -15 -16 -16 -17 -17 -18 -18 -18 -19 -19 -19 -19 -18 -18 -18 -18
-9 -10 -10 -10 -10 -10 -10 -10 -10 -10 -11 -11 -11 -11 -11 -11 -12 -12 -12 -13 -14 -14 -15 -15 -15 -15 -16 -16 -16 -16 -17 -18 -18 -18 -18 -18 -18 -18 -19 -19 -19 -19 -19
-9 -9 -10 -10 -9 -9 -10 -11 -11 -11 -11 -12 -11 -11 -12 -12 -12 -12 -13 -14 -14 -15 -15 -16 -16 -16 -16 -16 -16 -16 -17 -18 -18 -18 -18 -18 -18 -18 -19 -19 -18 -18 -18
-10 -10 -10 -9 -9 -10 -10 -10 -11 -11 -11 -11 -12 -12 -12 -12 -13 -13 -13 -14 -15 -15 -15 -16 -16 -16 -16 -16 -16 -17 -17 -17 -17 -17 -17 -17 -18 -18 -18 -18 -17 -17 -17
-11 -10 -10 -9 -10 -10 -10 -10 -10 -11 -11 -11 -12 -12 -12 -12 -13 -13 -14 -14 -14 -15 -15 -16 -16 -17 -17 -17 -16 -17 -17 -17 -17 -17 -17 -17 -17 -17 -17 -17 -17 -17 -17
-10 -10 -10 -10 -10 -10 -10 -11 -11 -11 -12 -12 -12 -12 -12 -13 -13 -14 -14 -15 -15 -16 -16 -16 -17 -17 -17 -17 -17 -17 -17 -17 -16 -16 -16 -17 -17 -17 -17 -17 -17 -17 -17
-10 -10 -9 -10 -10 -10 -11 -11 -11 -12 -12 -12 -12 -12 -13 -13 -13 -14 -15 -15 -15 -16 -17 -17 -17 -17 -17 -17 -17 -17 -17 -17 -17 -17 -17 -17 -17 -17 -17 -17 -17 -17 -17
-10 -10 -10 -10 -11 -11 -11 -11 -12 -12 -12 -13 -13 -13 -13 -13 -14 -14 -15 -15 -16 -16 -17 -17 -17 -17 -17 -17 -17 -17 -17 -17 -17 -17 -17 -17 -17 -17 -17 -17 -18 -18 -18
-10 -10 -10 -11 -11 -11 -11 -12 -12 -12 -12 -13 -13 -13 -13 -14 -15 -15 -15 -15 -16 -17 -17 -17 -17 -17 -17 -17 -17 -17 -17 -17 -17 -17 -17 -17 -17 -17 -18 -18 -18 -18 -18
Height
5899 5895 5893 5892 5889 5887 5887 5887 5886 5887 5886 5885 5885 5886 5886 5885 5885 5884 5883 5883 5881 5880 5878 5876 5874 5872 5871 5869 5868 5867 5866 5864 5863 5863 5861 5861 5858 5857 5857 5854 5854 5853 5852
5896 5894 5890 5887 5885 5882 5879 5881 5880 5878 5877 5878 5879 5879 5881 5880 5880 5881 5880 5879 5878 5876 5874 5872 5871 5869 5867 5865 5863 5862 5861 5860 5858 5856 5856 5855 5851 5851 5849 5848 5847 5846 5846
5894 5892 5889 5883 5881 5879 5875 5875 5874 5871 5869 5870 5871 5871 5873 5874 5874 5874 5874 5874 5873 5871 5870 5868 5866 5865 5862 5860 5858 5857 5855 5854 5852 5850 5849 5847 5846 5844 5842 5841 5838 5836 5836
5891 5889 5885 5880 5878 5876 5873 5870 5868 5863 5861 5863 5863 5865 5866 5869 5869 5870 5871 5870 5869 5867 5866 5864 5862 5860 5858 5856 5853 5852 5850 5848 5846 5843 5842 5840 5838 5836 5834 5832 5832 5828 5826
5888 5886 5882 5879 5878 5877 5874 5871 5867 5851 5847 5854 5859 5860 5862 5865 5865 5866 5866 5865 5865 5863 5861 5859 5857 5855 5852 5850 5848 5845 5843 5841 5838 5836 5834 5832 5830 5828 5825 5823 5821 5818 5818
5886 5884 5879 5878 5876 5874 5872 5871 5867 5859 5854 5855 5854 5858 5860 5861 5861 5861 5860 5860 5859 5858 5856 5853 5851 5848 5845 5843 5840 5838 5835 5833 5830 5827 5824 5821 5819 5817 5815 5812 5810 5808 5805
5883 5881 5878 5870 5874 5873 5871 5868 5865 5862 5861 5859 5857 5857 5858 5858 5858 5857 5855 5855 5852 5851 5849 5846 5843 5840 5838 5835 5831 5828 5825 5822 5820 5816 5812 5810 5806 5804 5802 5798 5796 5794 5791
5880 5878 5876 5874 5872 5871 5869 5867 5865 5862 5859 5857 5856 5856 5854 5854 5853 5852 5850 5847 5845 5843 5841 5839 5835 5833 5830 5825 5822 5818 5815 5811 5807 5803 5800 5796 5792 5789 5786 5784 5781 5777 5775
5877 5875 5874 5872 5869 5867 5865 5863 5860 5860 5858 5855 5854 5851 5850 5849 5848 5846 5842 5841 5839 5837 5833 5830 5826 5824 5819 5817 5812 5807 5802 5798 5794 5790 5786 5782 5778 5774 5771 5767 5763 5760 5758
5873 5872 5871 5867 5865 5861 5858 5856 5854 5852 5851 5850 5848 5847 5844 5843 5841 5839 5837 5833 5829 5826 5823 5819 5816 5812 5808 5804 5800 5795 5789 5783 5778 5773 5769 5765 5761 5757 5754 5750 5746 5743 5740
5867 5866 5865 5863 5862 5859 5856 5853 5849 5847 5845 5844 5842 5840 5838 5836 5833 5832 5829 5827 5823 5820 5818 5813 5808 5804 5798 5793 5788 5783 5776 5771 5765 5759 5753 5748 5743 5739 5734 5731 5728 5726 5724
5860 5859 5858 5857 5855 5853 5850 5848 5844 5842 5840 5837 5836 5834 5832 5830 5826 5823 5820 5816 5813 5810 5805 5800 5797 5792 5786 5780 5775 5769 5762 5755 5749 5743 5737 5731 5727 5722 5718 5714 5711 5708 5705
5853 5853 5852 5850 5847 5845 5841 5841 5839 5836 5835 5833 5830 5827 5825 5822 5819 5816 5812 5809 5805 5801 5796 5791 5786 5781 5774 5766 5760 5754 5748 5742 5736 5731 5725 5720 5715 5711 5707 5703 5699 5695 5691
5844 5844 5844 5841 5839 5838 5836 5834 5832 5829 5827 5826 5824 5821 5818 5816 5812 5808 5804 5800 5797 5793 5788 5782 5776 5770 5764 5758 5751 5745 5740 5734 5728 5722 5716 5710 5705 5699 5695 5690 5686 5682 5679
5836 5836 5835 5834 5831 5831 5828 5824 5822 5820 5818 5816 5816 5816 5813 5810 5806 5803 5799 5795 5791 5785 5779 5774 5768 5761 5756 5749 5743 5737 5731 5725 5718 5710 5704 5698 5693 5687 5682 5677 5673 5669 5665
5830 5829 5828 5826 5825 5822 5819 5815 5814 5813 5812 5810 5809 5808 5805 5803 5801 5798 5794 5789 5784 5778 5772 5765 5759 5753 5748 5742 5736 5730 5723 5715 5708 5700 5694 5687 5681 5675 5669 5665 5660 5656 5651
5823 5820 5819 5819 5816 5814 5812 5810 5808 5806 5805 5805 5803 5800 5796 5793 5789 5786 5781 5776 5771 5765 5760 5755 5750 5745 5740 5734 5728 5720 5712 5704 5696 5690 5683 5675 5668 5663 5658 5653 5648 5644 5640
5813 5813 5813 5812 5809 5806 5803 5804 5801 5800 5799 5797 5794 5792 5789 5786 5783 5780 5774 5768 5763 5758 5753 5748 5742 5737 5732 5726 5719 5711 5703 5694 5686 5678 5670 5663 5658 5653 5648 5644 5639 5635 5631
5807 5806 5806 5804 5801 5799 5798 5798 5795 5793 5792 5790 5787 5785 5782 5780 5776 5771 5765 5759 5754 5750 5745 5740 5734 5730 5724 5717 5710 5702 5693 5684 5676 5669 5662 5657 5652 5647 5642 5637 5633 5628 5624
5800 5799 5797 5797 5796 5794 5793 5792 5791 5788 5786 5784 5781 5778 5776 5773 5768 5762 5757 5752 5747 5742 5738 5733 5728 5722 5717 5710 5702 5693 5684 5676 5669 5662 5656 5651 5646 5641 5636 5631 5626 5621 5617
5793 5792 5792 5791 5789 5788 5786 5784 5783 5782 5781 5780 5778 5773 5769 5765 5760 5756 5751 5747 5742 5737 5733 5727 5721 5715 5708 5700 5693 5685 5677 5670 5663 5656 5651 5645 5640 5635 5630 5625 5621 5616 5612
5788 5787 5786 5785 5782 5780 5778 5777 5777 5776 5774 5772 5769 5766 5763 5758 5752 5748 5744 5739 5734 5729 5725 5720 5713 5707 5700 5692 5686 5679 5672 5665 5658 5652 5645 5640 5635 5631 5626 5621 5617 5613 5608
5781 5781 5780 5778 5775 5774 5773 5771 5770 5769 5767 5765 5763 5760 5755 5750 5746 5741 5737 5731 5726 5721 5716 5710 5705 5699 5693 5685 5679 5673 5667 5661 5655 5649 5643 5637 5632 5627 5623 5618 5613 5609 5604
5775 5774 5774 5773 5772 5770 5767 5766 5765 5763 5761 5758 5756 5753 5748 5744 5740 5735 5730 5724 5718 5713 5708 5704 5699 5693 5686 5679 5673 5668 5662 5657 5651 5645 5640 5634 5629 5624 5620 5615 5610 5605 5600
5770 5769 5769 5767 5765 5763 5761 5759 5758 5756 5754 5751 5748 5744 5741 5737 5733 5728 5723 5717 5712 5707 5703 5698 5693 5688 5681 5674 5668 5662 5658 5652 5647 5641 5636 5631 5626 5621 5615 5610 5605 5599 5594
5765 5764 5763 5762 5760 5757 5756 5754 5752 5750 5748 5746 5742 5739 5735 5730 5726 5721 5716 5711 5706 5702 5697 5693 5688 5682 5675 5670 5664 5658 5653 5648 5643 5638 5633 5628 5622 5616 5610 5605 5599 5593 5588
Wind_Speed
10 10 11 12 15 19 20 21 25 22 19 17 17 15 13 14 15 15 15 14 15 15 16 17 18 18 20 21 21 23 22 21 22 18 18 17 19 21 18 20 21 21 21
12 11 14 15 11 10 17 14 15 15 16 14 17 18 17 13 13 13 13 15 16 17 18 16 16 17 16 15 15 16 16 16 17 17 15 15 18 18 20 22 23 25 25
15 16 18 21 16 16 14 11 20 25 24 23 16 20 20 13 13 15 17 16 17 17 18 17 17 16 16 15 15 16 16 18 19 21 22 22 22 22 22 23 24 24 24
17 19 20 19 11 11 15 21 27 36 32 21 28 17 20 16 12 16 18 15 21 18 18 18 18 18 18 19 19 21 21 22 24 25 27 28 29 28 29 31 31 31 30
18 19 17 17 12 13 14 20 29 22 27 24 22 19 14 14 14 17 16 14 18 20 20 19 21 21 22 23 23 24 25 27 29 30 31 32 34 35 35 35 36 37 37
17 16 14 10 9 9 11 15 20 25 27 16 8 6 8 12 13 11 14 17 20 20 23 26 27 27 27 27 28 28 29 31 33 34 35 37 38 40 40 40 41 43 42
16 18 18 8 13 13 14 15 18 17 16 15 15 12 10 10 12 15 18 21 23 24 26 27 28 29 31 32 33 34 36 37 38 38 40 41 43 44 44 44 45 47 46
15 19 13 17 17 18 19 21 21 21 18 15 14 13 12 13 16 19 23 24 26 28 29 30 32 33 35 36 37 38 38 40 42 44 46 45 46 47 47 47 47 48 50
16 17 18 19 21 25 25 26 26 24 19 15 14 13 14 15 19 22 25 28 28 28 31 35 39 38 36 37 39 41 42 43 44 46 47 48 50 50 51 51 51 50 50
16 20 17 19 23 26 27 30 31 27 24 15 14 15 16 19 22 24 24 28 33 36 37 37 40 40 40 43 43 41 42 44 46 48 49 50 50 51 51 51 52 52 52
19 17 19 23 23 26 29 30 29 25 20 19 16 18 19 22 24 24 29 35 37 37 36 35 37 39 42 42 44 46 48 50 52 52 53 53 54 53 52 52 50 49 49
19 21 23 25 27 29 31 30 26 22 22 18 18 20 21 23 25 30 34 37 34 34 37 38 38 40 43 45 45 45 47 50 51 52 53 53 51 50 48 49 48 46 46
21 22 23 27 27 28 29 28 26 24 24 23 19 20 23 25 30 33 32 31 36 35 36 37 40 43 44 44 45 45 44 43 42 42 41 40 40 40 40 41 42 43 43
25 18 20 25 26 28 30 27 29 32 27 24 22 23 27 29 30 28 33 34 34 35 37 40 42 42 40 37 35 37 39 39 40 39 39 38 39 40 40 40 40 39 40
25 19 24 27 27 31 34 37 31 32 30 25 27 27 27 25 27 31 31 31 33 36 38 39 38 35 32 31 34 36 39 40 41 42 42 43 42 41 41 41 41 41 42
22 24 27 26 29 34 27 29 25 23 26 25 22 24 23 26 27 26 26 30 34 36 34 33 31 29 30 34 36 37 41 43 44 44 44 46 46 43 42 41 42 42 42
24 26 26 28 32 27 17 18 18 15 15 19 20 23 25 28 28 29 33 35 35 34 33 31 29 29 33 36 35 41 44 46 46 43 45 44 42 40 39 39 38 37 34
27 28 29 31 28 26 19 18 15 15 16 19 20 22 23 24 27 30 32 33 32 31 32 32 33 36 37 36 40 45 44 45 45 45 43 39 35 33 32 31 30 30 28
31 31 28 26 26 22 16 17 17 17 19 20 21 22 25 26 28 31 32 31 31 32 32 33 35 38 38 41 46 45 45 45 43 39 34 30 30 29 29 28 28 29 30
34 34 29 28 24 15 13 14 14 17 19 20 23 23 25 27 30 32 31 30 31 33 34 33 37 40 39 43 44 43 42 42 37 32 29 28 28 28 27 25 26 25 21
22 21 20 19 15 12 14 16 16 20 22 23 18 21 25 28 29 28 29 29 31 33 31 32 35 38 40 41 41 39 39 37 33 30 29 28 28 27 26 21 21 21 20
15 19 20 18 15 15 16 18 19 21 21 21 20 21 26 29 30 30 30 34 34 34 32 34 36 37 38 39 37 34 34 34 32 31 29 27 25 24 23 21 21 21 21
17 18 15 17 16 17 17 18 21 21 21 22 22 24 28 30 29 31 31 32 32 33 34 35 36 35 36 37 34 31 30 30 28 27 26 26 25 23 23 23 24 24 24
17 20 19 15 15 16 16 20 18 20 22 23 24 26 29 32 30 29 29 32 33 33 34 35 33 33 34 34 32 30 28 28 28 27 26 26 26 25 25 25 26 26 26
16 17 15 16 16 17 19 21 19 20 21 24 25 27 30 31 30 30 30 31 33 34 35 30 29 29 33 34 31 29 28 27 26 26 26 26 26 26 26 27 27 28 28
14 16 16 15 17 20 19 20 20 21 22 23 24 27 30 29 28 30 30 32 34 34 32 31 32 32 35 33 29 27 26 25 24 26 27 28 29 29 29 29 28 29 29
Wind_Direction
320 306 300 298 304 312 315 301 294 290 292 289 299 301 308 323 335 338 333 325 320 319 317 318 313 303 290 284 289 296 298 299 298 295 297 299 292 292 292 287 291 289 287
319 301 292 289 304 307 321 342 339 325 289 285 281 275 274 292 314 332 334 327 318 317 311 312 312 317 325 322 316 316 315 312 310 312 305 299 296 297 287 290 287 285 284
330 336 323 304 311 306 304 337 322 306 303 285 284 267 260 269 291 307 316 317 314 318 312 308 306 306 308 309 309 305 300 300 300 299 300 297 293 290 286 281 279 279 280
320 331 328 332 336 326 325 342 325 310 300 311 288 272 264 263 282 308 314 305 310 312 310 310 305 303 301 298 297 297 296 294 293 293 291 291 290 287 284 284 280 277 275
311 324 328 319 316 329 325 329 338 283 277 271 280 263 274 260 293 306 313 316 310 311 310 308 304 300 297 295 293 292 291 289 289 288 288 288 287 286 285 281 278 278 277
301 313 330 352 346 325 342 336 346 355 7 11 17 287 287 299 311 318 314 315 310 312 310 310 305 300 297 298 298 299 298 295 292 291 290 289 288 286 283 280 278 277 276
312 309 315 320 351 343 343 345 344 353 349 2 12 5 342 324 312 311 315 312 319 319 316 311 310 310 309 308 307 306 304 301 298 295 292 289 287 284 280 277 275 273 272
305 311 318 318 322 327 337 342 342 338 336 344 344 335 332 316 317 317 319 323 323 319 316 316 314 312 309 306 304 302 300 300 301 299 296 294 291 288 286 282 278 276 275
292 295 300 310 314 319 323 325 324 326 326 322 318 326 324 320 318 318 320 317 318 320 318 316 311 309 308 310 308 305 303 300 297 295 293 291 289 286 284 282 281 280 278
291 290 293 294 304 312 319 325 323 319 318 305 309 312 316 318 315 315 321 327 322 318 315 313 308 306 307 309 305 303 301 298 296 295 294 292 289 286 283 281 280 279 278
276 281 294 298 307 308 320 316 317 315 300 296 297 300 310 311 314 315 320 318 315 310 306 303 304 302 301 302 303 305 304 301 297 294 291 288 287 286 285 284 280 278 275
268 280 288 300 307 309 307 314 320 309 290 284 288 295 307 311 309 310 313 312 309 306 307 309 309 310 310 310 309 307 304 301 298 295 292 293 295 298 299 296 294 292 290
264 280 293 297 301 310 299 291 304 299 291 286 291 296 303 303 304 308 307 306 308 311 312 312 313 314 316 318 317 314 311 310 311 306 304 304 300 296 294 294 295 293 292
257 280 292 302 294 297 299 294 298 297 282 282 287 298 304 304 303 303 307 311 311 312 315 317 319 320 320 317 316 320 321 320 317 314 311 307 304 302 299 295 292 291 291
272 286 295 302 302 297 300 288 290 302 277 271 282 292 296 299 298 302 304 305 310 316 317 316 315 315 314 320 323 325 323 320 316 313 311 308 305 303 300 295 293 292 294
276 283 289 291 303 303 307 307 304 304 298 297 292 296 300 298 299 300 304 312 315 315 316 316 313 315 318 319 318 318 320 319 315 310 307 305 303 301 298 296 296 296 297
278 283 290 303 301 295 300 286 287 308 298 297 295 298 301 304 308 314 319 320 321 323 319 316 312 316 320 320 321 322 319 317 315 309 309 307 306 306 304 303 303 303 301
286 294 299 296 290 291 300 282 280 303 306 304 302 308 304 307 314 317 320 322 323 321 319 317 315 314 314 318 319 324 322 318 317 316 315 315 315 313 311 309 307 304 301
284 292 295 291 287 296 301 287 299 307 306 309 312 312 307 312 318 322 325 325 323 320 317 315 315 314 316 321 321 325 324 324 323 320 319 319 317 315 315 315 315 314 299
284 283 287 294 294 288 282 297 303 308 313 313 311 304 309 318 323 325 326 326 323 320 321 312 311 311 312 317 321 325 327 328 324 321 320 321 320 322 324 318 313 319 315
288 282 282 282 291 298 305 313 321 314 310 300 296 306 319 323 324 325 327 322 322 322 318 315 313 317 319 319 326 328 330 331 328 326 327 326 327 325 327 332 331 329 329
291 288 290 283 288 305 309 307 306 305 301 300 311 320 318 323 329 325 327 325 327 324 323 321 322 323 325 325 328 329 334 335 335 334 335 336 336 336 334 336 335 336 335
292 287 285 288 294 294 298 306 306 300 301 307 314 321 325 330 325 325 326 327 327 326 325 328 328 326 327 325 328 328 332 332 335 339 338 337 337 336 334 332 331 330 330
290 287 284 282 285 293 306 302 298 299 303 310 317 323 327 326 321 323 326 329 329 327 325 324 325 329 332 328 329 328 332 334 338 340 340 337 336 333 329 326 323 321 320
279 277 280 290 296 306 307 303 300 301 309 315 321 325 324 322 319 322 328 327 325 323 320 322 327 330 331 333 329 328 331 334 338 341 340 338 337 336 334 331 328 324 322
268 276 287 295 302 307 307 295 300 306 309 313 316 321 324 322 321 324 326 327 328 325 326 324 324 325 327 330 328 326 327 330 331 334 335 335 334 332 332 330 328 329 328